Regional Weather Roundup
Issued by NWS Goodland, KS

Home | Current Version | Previous Version | Text Only | Print | Product List | Glossary Off
Versions: 1 2 3 4 5 6 7 8 9 10 11 12 13 14 15 16 17 18 19 20 21 22 23 24 25 26 27 28 29 30 31 32 33 34 35 36 37 38 39 40 41 42 43 44 45 46 47 48 49 50

000
ASUS43 KGLD 251259
RWRGLD

GOODLAND FORECAST AREA HOURLY WEATHER ROUNDUP
NATIONAL WEATHER SERVICE GOODLAND KS
700 AM MDT SAT APR 25 2015

...OFFICIAL OBSERVATIONS...

CITY           SKY/WX    TMP DP  RH WIND       PRES   REMARKS
GOODLAND KS    SUNNY     46  40  79 NW10      29.67R
HILL CITY KS   PTSUNNY   54  48  80 NW13      29.60R
IMPERIAL NEB   MOSUNNY   48  43  82 N12       29.66R
MCCOOK NEB     MOSUNNY   50  46  86 W8        29.62R
AKRON CO       SUNNY     44  37  76 W13       29.72R
BURLINGTON CO  SUNNY     46  38  73 W13       29.70R
LIMON CO       CLEAR     36  31  82 N6        29.77R
$$

...UNOFFICIAL OBSERVATIONS...

CITY           SKY/WX    TMP DP  RH WIND       PRES   REMARKS
COLBY KS       SUNNY     48  45  87 NW12      29.64R
GOVE KS          N/A     48  32  54 MISG        N/A
LENORA KS        N/A     51  32  48 MISG        N/A
NORTON KS      SUNNY     54  46  76 W12       29.58R
SHARON SPRINGS   N/A     46  41  83 W10         N/A
KIT CARSON CO    N/A     46  39  77 MISG        N/A
YUMA CO          N/A     41  37  84 W10         N/A
$$


USA.gov is the U.S. government's official web portal to all federal, state and local government web resources and services.